Weather Service Report


205 
ASUS45 KTFX 232010
RWRMT 
Montana Regional Weather Roundup
National Weather Service Great Falls MT
100 PM MST SUN FEB 23 2020

NOTE: "FAIR" indicates few or no clouds below 12,000 feet with no
significant weather and/or obstructions to visibility.

MTZ001>007-043-232100-
West of the divide
  
CITY           SKY/WX    TMP DP  RH WIND       PRES   REMARKS
Kalispell      CLOUDY    37  28  70 CALM      29.82F                  
Missoula       CLOUDY    40  22  48 NW3       29.89F                  
Butte          FAIR      40  21  46 N7        29.87F                  
Anaconda         N/A     45  19  36 S17G26    29.83F                  
Deer Lodge       N/A     43  21  42 S9        29.86F                  
Hamilton       CLOUDY    48  27  43 SE14      29.86F                  
Libby            N/A     37  28  70 CALM      29.80F                  
Mullan Pass    LGT SNOW  28  23  81 SE7       29.77  VSB 3/4 WCI  21  
Plains           N/A     50  28  42 S13       29.86F                  
Ronan            N/A     48  27  43 S20G26    29.83                   
$$

MTZ008-052>055-232100-
Southwest Montana
  
CITY           SKY/WX    TMP DP  RH WIND       PRES   REMARKS
Bozeman        FAIR      33  19  56 CALM      29.88F                  
Dillon         PTSUNNY   37  21  52 S12       29.89F WCI  29          
Ennis          PTSUNNY   45  18  33 S12       29.93F                  
Three Forks      N/A     41  16  36 E7        29.88F                  
W Yellowstone  FAIR      34  16  47 SW25G32   29.95F WCI  21          
$$

MTZ009-010-012-014-046-048-049-054-232100-
East Slopes and Central Montana
  
CITY           SKY/WX    TMP DP  RH WIND       PRES   REMARKS
Cut Bank       FAIR      41  23  48 SE15      29.75F                  
Great Falls    FAIR      49  15  25 SW23G33   29.78F                  
Helena         CLOUDY    42  20  41 W3        29.84F                  
Malmstrom AFB  FAIR      51  16  25 SW21      29.80F                  
Augusta        PTSUNNY   49  14  25 W16G24    29.76F                  
Bowmans Corner FAIR      43  16  33 W16       29.78F                  
Choteau          N/A     50  14  23 W13       29.74F                  
Fairfield      FAIR      52  16  24 W17       29.76F                  
Power          PTSUNNY   46  17  30 S12G21    29.76F                  
Raynesford     PTSUNNY   48  13  25 SW20G28   29.81F                  
Ulm            FAIR      47  15  28 W21G29    29.81F                  
White Sulphur    N/A     39  19  45 SE14      29.83  WCI  31          
$$

MTZ011-013-016-021-045-047-050-051-232100-
North Central Montana
  
CITY           SKY/WX    TMP DP  RH WIND       PRES   REMARKS
Havre          CLOUDY    40  23  50 E16       29.84F                  
Lewistown      FAIR      40  24  53 SW14      29.82F                  
Chinook          N/A     36  28  75 E12       29.89F WCI  27          
Denton         FAIR      44  26  49 S18       29.79F                  
Geyser         PTSUNNY   46  19  34 W12       29.81F                  
Grass Range    FAIR      42  24  48 CALM      29.80F                  
Judith Gap     PTSUNNY   34  23  64 SE15      29.85F WCI  24          
N Bar Ranch    FAIR      39  19  45 S9G20     29.87F                  
Roy            FAIR      44  25  47 S20       29.81F                  
Stanford       FAIR      44  19  36 NW3       29.81F                  
Winifred       FAIR      42  25  51 CALM      29.82F                  
$$

MTZ017>020-022>027-061-062-232100-
Northeast Montana
  
CITY           SKY/WX    TMP DP  RH WIND       PRES   REMARKS
Glasgow        CLOUDY    33  24  69 E6        29.99F WCI  28          
Culbertson       N/A     37  21  52 W9        30.00F WCI  31          
Glendive       FAIR      39  14  36 S7        30.01F                  
Jordan           N/A     42  17  36 SE14      29.95F                  
Malta          PTSUNNY   34  28  80 E12       29.94F WCI  25          
Poplar           N/A     36  21  55 W6        30.02F WCI  31          
Sidney         FAIR      40  16  37 VRB7      30.02F                  
Wolf Point     CLOUDY    35  22  58 SW5       30.03F                  
$$

MTZ028>42-056>058-232100-
Southcentral and southeast Montana
  
CITY           SKY/WX    TMP DP  RH WIND       PRES   REMARKS
Baker          CLOUDY    38  17  42 S3        30.01F                  
Big Timber     SUNNY     45  16  31 S7        29.86F                  
Billings       PTSUNNY   38  20  48 S8        29.90F                  
Forsyth          N/A     43  23  45 E12       29.95F                  
Hardin         CLEAR     45  23  42 VRB6      29.90                   
Harlowton      PTSUNNY   41  19  41 SE8       29.85F                  
Laurel           N/A     41  19  42 CALM      29.90F                  
Livingston     CLOUDY    43  18  36 NW16      29.84F                  
Miles City     FAIR      41  15  35 SE12G21   29.97F                  
$$

Regional Reports...Dakotas/MN
  
CITY           SKY/WX    TMP DP  RH WIND       PRES   REMARKS
Williston      FAIR      34  18  52 W15       29.99F WCI  24          
Minot          FAIR      39  16  39 W17G30    29.96F WCI  30          
Dickinson      FAIR      38  13  35 NW9       29.99F WCI  31          
Beach          CLOUDY    37  12  35 N5        30.01F                  
Crosby         FAIR      32  21  64 W14       29.99S WCI  22          
Hettinger      CLOUDY    40  14  34 N7        30.02F                  
Tioga          FAIR      34  18  51 W13       29.99F WCI  25          
Watford City   FAIR      39  18  41 W13G18    30.00F WCI  32          
Bismarck       FAIR      38  21  50 NW14      30.03F WCI  30          
Grand Forks    FAIR      36  25  64 NW21G29   29.88R WCI  25          
Fargo          FAIR      37  28  70 W18       29.93R WCI  27          
Buffalo SD       N/A     41  10  28 CALM      29.98F                  
Rapid City     FAIR      44  24  45 NE5       30.01F                  
Intl Falls     PTSUNNY   37  26  64 W20G30    29.67R WCI  27          
Duluth         FAIR      42  24  49 W24G40    29.69R                  
Minneapolis    FAIR      43  27  53 W15G30    29.87S                  
$$

Regional Reports...WY/ID/WA
  
CITY           SKY/WX    TMP DP  RH WIND       PRES   REMARKS
Buffalo WY     FAIR      35  21  56 SE29      29.87F WCI  22          
Cody           FAIR      43  15  32 E9        29.89F                  
Gillette       FAIR      43  25  49 S15       29.93F                  
Powell         FAIR      36  14  41 SE14      29.88F WCI  27          
Sheridan       FAIR      38  23  55 SE15      29.88F WCI  29          
Yellowstone La   N/A     23   9  55 CALM      29.99F                  
Boise          PTSUNNY   49  25  39 SE14      30.08F                  
Couer d'Alene  CLOUDY    43  29  57 S15G22    29.78F                  
Idaho Falls    FAIR      24  16  71 NW7       30.09F WCI  16          
Salmon         CLOUDY    21   8  57 MISG      30.05F                  
Spokane        LGT RAIN  42  33  70 S15G24    29.76F                  
Seattle        LGT RAIN  44  38  79 SW20G31   29.98R                  
$$

Regional Reports...Alberta
  
CITY           SKY/WX    TMP DP  RH WIND       PRES   REMARKS
Calgary        PTSUNNY   34  23  64 SE14      29.71F WCI  24          
Crowsnest Pass   N/A     37  27  65 NW5         N/A                   
Del Bonita       N/A     39  27  60 S16         N/A  WCI  30          
Edmonton       FLURRIES  30   9  40 SW6       29.83F WCI  24          
Fort McMurray  SUNNY     34  10  37 W10       29.81S WCI  26          
High Level     MOSUNNY   30  12  47 N8        29.83R WCI  23          
Lethbridge     CLOUDY    41  28  60 SE7       29.74F                  
Lloydminster   MOSUNNY   25   9  50 SW9       29.86F WCI  15          
Medicine Hat   CLOUDY    37  25  60 E10       29.83F WCI  30          
Peace River    MOSUNNY   23  12  63 SE2       29.85S                  
Pincher Creek  SUNNY     36  28  75 MISG      29.69F                  
Raymond          N/A     45  28  53 S2          N/A                   
Waterton Gate    N/A     41  25  52 SW25G35     N/A                   
Fort Smith NWT CLOUDY     5  -2  72 NW5       29.89R                  
$$

Regional Reports...Saskatchewan
  
CITY           SKY/WX    TMP DP  RH WIND       PRES   REMARKS
Assiniboia       N/A     32  18  55 SW8         N/A  WCI  25          
Coronach         N/A     32  19  59 SW6         N/A  WCI  26          
Cypress Hills    N/A     25  18  74 SE15G22     N/A  WCI  12          
Estevan        SUNNY     32  23  69 W13       29.96F WCI  22          
La Ronge         N/A     34  14  44 W6          N/A  WCI  29          
Prince Albert  MOSUNNY   34  14  44 NW10      29.88S WCI  26          
Regina         PTSUNNY   32  19  59 W12       29.95S WCI  23          
Rockglen         N/A     28  18  64 SW7         N/A  WCI  21          
Saskatoon      MOSUNNY   23  14  68 SW16      29.91F WCI  10          
Swift Current  PTSUNNY   34  19  55 S7        29.90F WCI  28          
Val Marie        N/A     30  23  74 S8          N/A  WCI  23          
$$
  

Return to Home page


Western Regional Climate Center, wrcc@dri.edu